Wetterdaten: Samstag, 16.01.2016
Datum Zeit Temp. A. Feuchte A. Luftdruck Regen Wind Richtung Richtung Sonnenschein ET UV Solar Taupunkt Windchill Windben Empfang
16.01.2016 00:00 -0,3 C 94 % 1012,1 hPa 0,0 l/m 16,4 km/h (3 Bft) SW 232 0 min 0,000 mm 0,0 UV-I 0 W/m -1,1 C -8,2 C 25,7 km/h (4 Bft) 100,00 %
16.01.2016 00:05 -0,3 C 94 % 1012,2 hPa 0,0 l/m 13,5 km/h (3 Bft) W-SW 238 0 min 0,000 mm 0,0 UV-I 0 W/m -1,1 C -6,4 C 25,7 km/h (4 Bft) 100,00 %
16.01.2016 00:10 -0,3 C 94 % 1012,1 hPa 0,0 l/m 18,9 km/h (3 Bft) SW 234 0 min 0,000 mm 0,0 UV-I 0 W/m -1,1 C -9,5 C 29,0 km/h (5 Bft) 100,00 %
16.01.2016 00:15 -0,3 C 94 % 1012,2 hPa 0,0 l/m 15,9 km/h (3 Bft) W-SW 245 0 min 0,000 mm 0,0 UV-I 0 W/m -1,1 C -7,9 C 27,4 km/h (4 Bft) 99,12 %
16.01.2016 00:20 -0,3 C 94 % 1012,2 hPa 0,0 l/m 16,8 km/h (3 Bft) SW 232 0 min 0,000 mm 0,0 UV-I 0 W/m -1,1 C -8,4 C 29,0 km/h (5 Bft) 99,13 %
16.01.2016 00:25 -0,3 C 95 % 1012,2 hPa 0,0 l/m 17,0 km/h (3 Bft) SW 228 0 min 0,000 mm 0,0 UV-I 0 W/m -1,0 C -8,5 C 25,7 km/h (4 Bft) 100,00 %
16.01.2016 00:30 -0,3 C 95 % 1012,3 hPa 0,0 l/m 16,9 km/h (3 Bft) W-SW 244 0 min 0,000 mm 0,0 UV-I 0 W/m -1,0 C -8,4 C 29,0 km/h (5 Bft) 99,17 %
16.01.2016 00:35 -0,3 C 95 % 1012,2 hPa 0,0 l/m 17,1 km/h (3 Bft) W-SW 243 0 min 0,000 mm 0,0 UV-I 0 W/m -1,0 C -8,6 C 30,6 km/h (5 Bft) 98,31 %
16.01.2016 00:40 -0,3 C 95 % 1012,2 hPa 0,0 l/m 18,2 km/h (3 Bft) W-SW 238 0 min 0,000 mm 0,0 UV-I 0 W/m -1,0 C -9,1 C 27,4 km/h (4 Bft) 98,29 %
16.01.2016 00:45 -0,3 C 95 % 1012,3 hPa 0,0 l/m 16,8 km/h (3 Bft) SW 234 0 min 0,000 mm 0,0 UV-I 0 W/m -1,0 C -8,4 C 25,7 km/h (4 Bft) 99,15 %
16.01.2016 00:50 -0,3 C 95 % 1012,2 hPa 0,0 l/m 16,9 km/h (3 Bft) S-SW 200 0 min 0,000 mm 0,0 UV-I 0 W/m -1,0 C -8,4 C 25,7 km/h (4 Bft) 99,13 %
16.01.2016 00:55 -0,3 C 95 % 1012,3 hPa 0,0 l/m 14,0 km/h (3 Bft) W-SW 249 0 min 0,000 mm 0,0 UV-I 0 W/m -1,0 C -6,7 C 20,9 km/h (4 Bft) 99,19 %
16.01.2016 01:00 -0,3 C 95 % 1012,3 hPa 0,0 l/m 15,3 km/h (3 Bft) SW 229 0 min 0,000 mm 0,0 UV-I 0 W/m -1,0 C -7,5 C 24,1 km/h (4 Bft) 98,94 %
16.01.2016 01:05 -0,4 C 95 % 1012,3 hPa 0,0 l/m 15,7 km/h (3 Bft) S-SW 209 0 min 0,000 mm 0,0 UV-I 0 W/m -1,1 C -7,9 C 25,7 km/h (4 Bft) 97,74 %
16.01.2016 01:10 -0,4 C 95 % 1012,3 hPa 0,0 l/m 13,5 km/h (3 Bft) W-SW 246 0 min 0,000 mm 0,0 UV-I 0 W/m -1,1 C -6,5 C 22,5 km/h (4 Bft) 96,67 %
16.01.2016 01:15 -0,4 C 95 % 1012,3 hPa 0,0 l/m 15,4 km/h (3 Bft) SW 234 0 min 0,000 mm 0,0 UV-I 0 W/m -1,1 C -7,7 C 25,7 km/h (4 Bft) 96,61 %
16.01.2016 01:20 -0,4 C 95 % 1012,3 hPa 0,0 l/m 13,6 km/h (3 Bft) SW 229 0 min 0,000 mm 0,0 UV-I 0 W/m -1,1 C -6,6 C 25,7 km/h (4 Bft) 97,25 %
16.01.2016 01:25 -0,5 C 96 % 1012,3 hPa 0,0 l/m 13,3 km/h (3 Bft) W-SW 245 0 min 0,000 mm 0,0 UV-I 0 W/m -1,1 C -6,5 C 25,7 km/h (4 Bft) 96,03 %
16.01.2016 01:30 -0,5 C 96 % 1012,4 hPa 0,0 l/m 11,7 km/h (2 Bft) W-SW 249 0 min 0,000 mm 0,0 UV-I 0 W/m -1,1 C -5,4 C 20,9 km/h (4 Bft) 96,91 %
16.01.2016 01:35 -0,5 C 96 % 1012,5 hPa 0,0 l/m 12,7 km/h (3 Bft) SW 229 0 min 0,000 mm 0,0 UV-I 0 W/m -1,1 C -6,1 C 24,1 km/h (4 Bft) 97,73 %
16.01.2016 01:40 -0,5 C 96 % 1012,6 hPa 0,0 l/m 13,2 km/h (3 Bft) W 260 0 min 0,000 mm 0,0 UV-I 0 W/m -1,1 C -6,4 C 24,1 km/h (4 Bft) 98,26 %
16.01.2016 01:45 -0,4 C 96 % 1012,7 hPa 0,0 l/m 12,5 km/h (3 Bft) W-SW 239 0 min 0,000 mm 0,0 UV-I 0 W/m -1,0 C -5,8 C 19,3 km/h (3 Bft) 97,52 %
16.01.2016 01:50 -0,4 C 96 % 1012,7 hPa 0,0 l/m 12,9 km/h (3 Bft) W-SW 253 0 min 0,000 mm 0,0 UV-I 0 W/m -1,0 C -6,1 C 19,3 km/h (3 Bft) 100,00 %
16.01.2016 01:55 -0,4 C 95 % 1012,7 hPa 0,0 l/m 12,0 km/h (2 Bft) SW 217 0 min 0,000 mm 0,0 UV-I 0 W/m -1,1 C -5,5 C 19,3 km/h (3 Bft) 98,31 %
16.01.2016 02:00 -0,4 C 95 % 1012,8 hPa 0,0 l/m 12,6 km/h (3 Bft) W-SW 244 0 min 0,000 mm 0,0 UV-I 0 W/m -1,1 C -5,9 C 20,9 km/h (4 Bft) 100,00 %
16.01.2016 02:05 -0,4 C 95 % 1012,8 hPa 0,0 l/m 12,8 km/h (3 Bft) SW 236 0 min 0,000 mm 0,0 UV-I 0 W/m -1,1 C -6,0 C 20,9 km/h (4 Bft) 99,11 %
16.01.2016 02:10 -0,4 C 95 % 1012,8 hPa 0,0 l/m 13,6 km/h (3 Bft) SW 215 0 min 0,000 mm 0,0 UV-I 0 W/m -1,1 C -6,6 C 22,5 km/h (4 Bft) 99,17 %
16.01.2016 02:15 -0,4 C 95 % 1013,0 hPa 0,0 l/m 11,6 km/h (2 Bft) SW 225 0 min 0,000 mm 0,0 UV-I 0 W/m -1,1 C -5,2 C 22,5 km/h (4 Bft) 99,12 %
16.01.2016 02:20 -0,4 C 95 % 1013,0 hPa 0,0 l/m 11,2 km/h (2 Bft) W-SW 258 0 min 0,000 mm 0,0 UV-I 0 W/m -1,1 C -4,9 C 16,1 km/h (3 Bft) 99,15 %
16.01.2016 02:25 -0,4 C 95 % 1013,1 hPa 0,0 l/m 11,8 km/h (2 Bft) W-SW 241 0 min 0,000 mm 0,0 UV-I 0 W/m -1,1 C -5,3 C 19,3 km/h (3 Bft) 100,00 %
16.01.2016 02:30 -0,4 C 96 % 1013,2 hPa 0,0 l/m 9,9 km/h (2 Bft) SW 224 0 min 0,000 mm 0,0 UV-I 0 W/m -1,0 C -3,8 C 16,1 km/h (3 Bft) 100,00 %
16.01.2016 02:35 -0,4 C 96 % 1013,1 hPa 0,0 l/m 10,5 km/h (2 Bft) SW 236 0 min 0,000 mm 0,0 UV-I 0 W/m -1,0 C -4,3 C 17,7 km/h (3 Bft) 100,00 %
16.01.2016 02:40 -0,4 C 96 % 1013,2 hPa 0,0 l/m 9,0 km/h (2 Bft) SW 232 0 min 0,000 mm 0,0 UV-I 0 W/m -1,0 C -3,0 C 14,5 km/h (3 Bft) 99,19 %
16.01.2016 02:45 -0,3 C 96 % 1013,3 hPa 0,0 l/m 11,6 km/h (2 Bft) W-SW 241 0 min 0,000 mm 0,0 UV-I 0 W/m -0,9 C -5,1 C 17,7 km/h (3 Bft) 99,08 %
16.01.2016 02:50 -0,3 C 96 % 1013,3 hPa 0,0 l/m 8,0 km/h (2 Bft) W-SW 239 0 min 0,000 mm 0,0 UV-I 0 W/m -0,9 C -2,0 C 16,1 km/h (3 Bft) 100,00 %
16.01.2016 02:55 -0,3 C 96 % 1013,4 hPa 0,0 l/m 8,1 km/h (2 Bft) SW 235 0 min 0,000 mm 0,0 UV-I 0 W/m -0,9 C -2,1 C 12,9 km/h (3 Bft) 100,00 %
16.01.2016 03:00 -0,3 C 95 % 1013,4 hPa 0,0 l/m 9,9 km/h (2 Bft) W-SW 246 0 min 0,000 mm 0,0 UV-I 0 W/m -1,0 C -3,7 C 14,5 km/h (3 Bft) 99,13 %
16.01.2016 03:05 -0,3 C 95 % 1013,4 hPa 0,0 l/m 10,8 km/h (2 Bft) W-SW 250 0 min 0,000 mm 0,0 UV-I 0 W/m -1,0 C -4,4 C 14,5 km/h (3 Bft) 99,08 %
16.01.2016 03:10 -0,3 C 95 % 1013,5 hPa 0,0 l/m 8,1 km/h (2 Bft) W 264 0 min 0,000 mm 0,0 UV-I 0 W/m -1,0 C -2,1 C 12,9 km/h (3 Bft) 95,83 %
16.01.2016 03:15 -0,3 C 96 % 1013,4 hPa 0,0 l/m 9,2 km/h (2 Bft) W 265 0 min 0,000 mm 0,0 UV-I 0 W/m -0,9 C -3,1 C 16,1 km/h (3 Bft) 97,52 %
16.01.2016 03:20 -0,3 C 96 % 1013,5 hPa 0,0 l/m 8,9 km/h (2 Bft) W-SW 251 0 min 0,000 mm 0,0 UV-I 0 W/m -0,9 C -2,8 C 12,9 km/h (3 Bft) 98,25 %
16.01.2016 03:25 -0,3 C 96 % 1013,5 hPa 0,0 l/m 9,9 km/h (2 Bft) W-SW 255 0 min 0,000 mm 0,0 UV-I 0 W/m -0,9 C -3,7 C 17,7 km/h (3 Bft) 96,69 %
16.01.2016 03:30 -0,3 C 96 % 1013,5 hPa 0,0 l/m 11,7 km/h (2 Bft) W-SW 244 0 min 0,000 mm 0,0 UV-I 0 W/m -0,9 C -5,1 C 17,7 km/h (3 Bft) 96,61 %
16.01.2016 03:35 -0,3 C 96 % 1013,5 hPa 0,0 l/m 10,4 km/h (2 Bft) W-SW 246 0 min 0,000 mm 0,0 UV-I 0 W/m -0,9 C -4,1 C 19,3 km/h (3 Bft) 98,06 %
16.01.2016 03:40 -0,3 C 96 % 1013,5 hPa 0,0 l/m 10,0 km/h (2 Bft) W 260 0 min 0,000 mm 0,0 UV-I 0 W/m -0,9 C -3,8 C 16,1 km/h (3 Bft) 96,75 %
16.01.2016 03:45 -0,3 C 96 % 1013,5 hPa 0,0 l/m 9,6 km/h (2 Bft) W-SW 252 0 min 0,000 mm 0,0 UV-I 0 W/m -0,9 C -3,4 C 16,1 km/h (3 Bft) 99,17 %
16.01.2016 03:50 -0,3 C 96 % 1013,4 hPa 0,0 l/m 9,9 km/h (2 Bft) W-SW 242 0 min 0,000 mm 0,0 UV-I 0 W/m -0,9 C -3,7 C 14,5 km/h (3 Bft) 97,37 %
16.01.2016 03:55 -0,3 C 96 % 1013,4 hPa 0,0 l/m 10,3 km/h (2 Bft) W 261 0 min 0,000 mm 0,0 UV-I 0 W/m -0,9 C -4,0 C 17,7 km/h (3 Bft) 99,11 %
16.01.2016 04:00 -0,3 C 96 % 1013,5 hPa 0,0 l/m 10,4 km/h (2 Bft) W-SW 241 0 min 0,000 mm 0,0 UV-I 0 W/m -0,9 C -4,1 C 17,7 km/h (3 Bft) 100,00 %
16.01.2016 04:05 -0,3 C 96 % 1013,7 hPa 0,0 l/m 8,6 km/h (2 Bft) SW 226 0 min 0,000 mm 0,0 UV-I 0 W/m -0,9 C -2,5 C 12,9 km/h (3 Bft) 98,17 %
16.01.2016 04:10 -0,3 C 96 % 1013,7 hPa 0,0 l/m 9,5 km/h (2 Bft) W 263 0 min 0,000 mm 0,0 UV-I 0 W/m -0,9 C -3,4 C 16,1 km/h (3 Bft) 100,00 %
16.01.2016 04:15 -0,3 C 96 % 1013,8 hPa 0,0 l/m 8,2 km/h (2 Bft) W-NW 290 0 min 0,000 mm 0,0 UV-I 0 W/m -0,9 C -2,2 C 14,5 km/h (3 Bft) 99,17 %
16.01.2016 04:20 -0,2 C 95 % 1013,9 hPa 0,0 l/m 7,4 km/h (2 Bft) W 267 0 min 0,000 mm 0,0 UV-I 0 W/m -0,9 C -1,2 C 12,9 km/h (3 Bft) 99,13 %
16.01.2016 04:25 -0,2 C 95 % 1013,9 hPa 0,0 l/m 9,8 km/h (2 Bft) W-SW 255 0 min 0,000 mm 0,0 UV-I 0 W/m -0,9 C -3,5 C 19,3 km/h (3 Bft) 100,00 %
16.01.2016 04:30 -0,1 C 95 % 1013,8 hPa 0,0 l/m 10,2 km/h (2 Bft) W-NW 288 0 min 0,000 mm 0,0 UV-I 0 W/m -0,8 C -3,7 C 16,1 km/h (3 Bft) 100,00 %
16.01.2016 04:35 -0,2 C 94 % 1014,0 hPa 0,0 l/m 8,5 km/h (2 Bft) W-SW 252 0 min 0,000 mm 0,0 UV-I 0 W/m -1,0 C -2,3 C 14,5 km/h (3 Bft) 100,00 %
16.01.2016 04:40 -0,2 C 95 % 1014,1 hPa 0,0 l/m 8,2 km/h (2 Bft) W 281 0 min 0,000 mm 0,0 UV-I 0 W/m -0,9 C -2,1 C 16,1 km/h (3 Bft) 100,00 %
16.01.2016 04:45 -0,2 C 94 % 1014,1 hPa 0,0 l/m 8,2 km/h (2 Bft) W-SW 257 0 min 0,000 mm 0,0 UV-I 0 W/m -1,0 C -2,1 C 14,5 km/h (3 Bft) 99,08 %
16.01.2016 04:50 -0,3 C 94 % 1014,1 hPa 0,0 l/m 9,9 km/h (2 Bft) W 262 0 min 0,000 mm 0,0 UV-I 0 W/m -1,1 C -3,7 C 17,7 km/h (3 Bft) 99,17 %
16.01.2016 04:55 -0,4 C 94 % 1014,2 hPa 0,0 l/m 9,2 km/h (2 Bft) W-SW 248 0 min 0,000 mm 0,0 UV-I 0 W/m -1,2 C -3,2 C 16,1 km/h (3 Bft) 99,10 %
16.01.2016 05:00 -0,4 C 94 % 1014,2 hPa 0,0 l/m 10,0 km/h (2 Bft) W 262 0 min 0,000 mm 0,0 UV-I 0 W/m -1,2 C -3,9 C 17,7 km/h (3 Bft) 100,00 %
16.01.2016 05:05 -0,5 C 95 % 1014,2 hPa 0,0 l/m 8,8 km/h (2 Bft) W 266 0 min 0,000 mm 0,0 UV-I 0 W/m -1,2 C -2,9 C 16,1 km/h (3 Bft) 100,00 %
16.01.2016 05:10 -0,5 C 94 % 1014,3 hPa 0,0 l/m 9,2 km/h (2 Bft) W-SW 253 0 min 0,000 mm 0,0 UV-I 0 W/m -1,3 C -3,3 C 16,1 km/h (3 Bft) 99,13 %
16.01.2016 05:15 -0,5 C 94 % 1014,4 hPa 0,0 l/m 7,1 km/h (2 Bft) W-SW 257 0 min 0,000 mm 0,0 UV-I 0 W/m -1,3 C -1,2 C 12,9 km/h (3 Bft) 98,31 %
16.01.2016 05:20 -0,5 C 94 % 1014,3 hPa 0,0 l/m 9,8 km/h (2 Bft) W-SW 254 0 min 0,000 mm 0,0 UV-I 0 W/m -1,3 C -3,8 C 17,7 km/h (3 Bft) 94,50 %
16.01.2016 05:25 -0,5 C 94 % 1014,3 hPa 0,0 l/m 11,7 km/h (2 Bft) W 269 0 min 0,000 mm 0,0 UV-I 0 W/m -1,3 C -5,4 C 17,7 km/h (3 Bft) 97,56 %
16.01.2016 05:30 -0,5 C 94 % 1014,5 hPa 0,0 l/m 10,5 km/h (2 Bft) W 269 0 min 0,000 mm 0,0 UV-I 0 W/m -1,3 C -4,4 C 16,1 km/h (3 Bft) 97,39 %
16.01.2016 05:35 -0,5 C 94 % 1014,6 hPa 0,0 l/m 7,5 km/h (2 Bft) W 268 0 min 0,000 mm 0,0 UV-I 0 W/m -1,3 C -1,7 C 14,5 km/h (3 Bft) 97,56 %
16.01.2016 05:40 -0,5 C 94 % 1014,7 hPa 0,0 l/m 8,7 km/h (2 Bft) W-NW 292 0 min 0,000 mm 0,0 UV-I 0 W/m -1,3 C -2,8 C 14,5 km/h (3 Bft) 98,31 %
16.01.2016 05:45 -0,4 C 95 % 1014,8 hPa 0,0 l/m 9,6 km/h (2 Bft) W 274 0 min 0,000 mm 0,0 UV-I 0 W/m -1,1 C -3,6 C 16,1 km/h (3 Bft) 96,33 %
16.01.2016 05:50 -0,4 C 94 % 1014,9 hPa 0,0 l/m 7,8 km/h (2 Bft) W 260 0 min 0,000 mm 0,0 UV-I 0 W/m -1,2 C -1,9 C 14,5 km/h (3 Bft) 100,00 %
16.01.2016 05:55 -0,4 C 94 % 1014,9 hPa 0,0 l/m 6,6 km/h (2 Bft) W-NW 285 0 min 0,000 mm 0,0 UV-I 0 W/m -1,2 C -0,6 C 11,3 km/h (2 Bft) 98,17 %
16.01.2016 06:00 -0,4 C 94 % 1015,0 hPa 0,0 l/m 7,9 km/h (2 Bft) W 269 0 min 0,000 mm 0,0 UV-I 0 W/m -1,2 C -2,0 C 12,9 km/h (3 Bft) 98,37 %
16.01.2016 06:05 -0,4 C 94 % 1015,1 hPa 0,0 l/m 6,6 km/h (2 Bft) W 279 0 min 0,000 mm 0,0 UV-I 0 W/m -1,2 C -0,6 C 16,1 km/h (3 Bft) 100,00 %
16.01.2016 06:10 -0,4 C 94 % 1015,1 hPa 0,0 l/m 7,5 km/h (2 Bft) W-NW 288 0 min 0,000 mm 0,0 UV-I 0 W/m -1,2 C -1,6 C 14,5 km/h (3 Bft) 100,00 %
16.01.2016 06:15 -0,3 C 95 % 1015,2 hPa 0,0 l/m 6,3 km/h (2 Bft) W 263 0 min 0,000 mm 0,0 UV-I 0 W/m -1,0 C -0,3 C 11,3 km/h (2 Bft) 100,00 %
16.01.2016 06:20 -0,4 C 95 % 1015,3 hPa 0,0 l/m 7,6 km/h (2 Bft) SW 234 0 min 0,000 mm 0,0 UV-I 0 W/m -1,1 C -1,7 C 14,5 km/h (3 Bft) 100,00 %
16.01.2016 06:25 -0,4 C 95 % 1015,4 hPa 0,0 l/m 8,4 km/h (2 Bft) W 261 0 min 0,000 mm 0,0 UV-I 0 W/m -1,1 C -2,5 C 14,5 km/h (3 Bft) 99,19 %
16.01.2016 06:30 -0,4 C 95 % 1015,4 hPa 0,0 l/m 7,4 km/h (2 Bft) W 266 0 min 0,000 mm 0,0 UV-I 0 W/m -1,1 C -1,5 C 16,1 km/h (3 Bft) 99,15 %
16.01.2016 06:35 -0,4 C 95 % 1015,5 hPa 0,0 l/m 7,2 km/h (2 Bft) W 267 0 min 0,000 mm 0,0 UV-I 0 W/m -1,1 C -1,2 C 14,5 km/h (3 Bft) 99,13 %
16.01.2016 06:40 -0,4 C 95 % 1015,5 hPa 0,0 l/m 7,6 km/h (2 Bft) W 271 0 min 0,000 mm 0,0 UV-I 0 W/m -1,1 C -1,7 C 12,9 km/h (3 Bft) 100,00 %
16.01.2016 06:45 -0,4 C 95 % 1015,5 hPa 0,0 l/m 7,4 km/h (2 Bft) W 266 0 min 0,000 mm 0,0 UV-I 0 W/m -1,1 C -1,5 C 16,1 km/h (3 Bft) 100,00 %
16.01.2016 06:50 -0,5 C 95 % 1015,5 hPa 0,0 l/m 7,2 km/h (2 Bft) W 271 0 min 0,000 mm 0,0 UV-I 0 W/m -1,2 C -1,3 C 12,9 km/h (3 Bft) 100,00 %
16.01.2016 06:55 -0,5 C 96 % 1015,5 hPa 0,0 l/m 7,4 km/h (2 Bft) W 261 0 min 0,000 mm 0,0 UV-I 0 W/m -1,1 C -1,6 C 16,1 km/h (3 Bft) 98,25 %
16.01.2016 07:00 -0,5 C 96 % 1015,5 hPa 0,0 l/m 6,8 km/h (2 Bft) W-NW 288 0 min 0,000 mm 0,0 UV-I 0 W/m -1,1 C -0,9 C 11,3 km/h (2 Bft) 100,00 %
16.01.2016 07:05 -0,5 C 95 % 1015,6 hPa 0,0 l/m 7,8 km/h (2 Bft) W 280 0 min 0,000 mm 0,0 UV-I 0 W/m -1,2 C -2,0 C 16,1 km/h (3 Bft) 99,11 %
16.01.2016 07:10 -0,5 C 95 % 1015,8 hPa 0,0 l/m 9,5 km/h (2 Bft) W 277 0 min 0,000 mm 0,0 UV-I 0 W/m -1,2 C -3,6 C 17,7 km/h (3 Bft) 99,21 %
16.01.2016 07:15 -0,5 C 95 % 1015,9 hPa 0,0 l/m 7,9 km/h (2 Bft) W-SW 252 0 min 0,000 mm 0,0 UV-I 0 W/m -1,2 C -2,1 C 14,5 km/h (3 Bft) 100,00 %
16.01.2016 07:20 -0,5 C 95 % 1016,1 hPa 0,0 l/m 8,2 km/h (2 Bft) W-NW 286 0 min 0,000 mm 0,0 UV-I 0 W/m -1,2 C -2,4 C 14,5 km/h (3 Bft) 97,50 %
16.01.2016 07:25 -0,5 C 95 % 1016,0 hPa 0,0 l/m 7,4 km/h (2 Bft) W 262 0 min 0,000 mm 0,0 UV-I 0 W/m -1,2 C -1,6 C 14,5 km/h (3 Bft) 97,46 %
16.01.2016 07:30 -0,5 C 95 % 1016,2 hPa 0,0 l/m 6,6 km/h (2 Bft) W 273 0 min 0,000 mm 0,0 UV-I 0 W/m -1,2 C -0,7 C 14,5 km/h (3 Bft) 95,76 %
16.01.2016 07:35 -0,4 C 95 % 1016,2 hPa 0,0 l/m 7,0 km/h (2 Bft) W 269 0 min 0,000 mm 0,0 UV-I 0 W/m -1,1 C -1,0 C 12,9 km/h (3 Bft) 97,50 %
16.01.2016 07:40 -0,4 C 95 % 1016,3 hPa 0,0 l/m 5,8 km/h (2 Bft) W 259 0 min 0,000 mm 0,0 UV-I 0 W/m -1,1 C -0,4 C 11,3 km/h (2 Bft) 98,21 %
16.01.2016 07:45 -0,5 C 95 % 1016,5 hPa 0,0 l/m 5,8 km/h (2 Bft) W 266 0 min 0,000 mm 0,0 UV-I 0 W/m -1,2 C -0,5 C 11,3 km/h (2 Bft) 97,32 %
16.01.2016 07:50 -0,6 C 95 % 1016,6 hPa 0,0 l/m 5,2 km/h (1 Bft) W 264 0 min 0,000 mm 0,0 UV-I 0 W/m -1,3 C -0,6 C 11,3 km/h (2 Bft) 97,62 %
16.01.2016 07:55 -0,6 C 95 % 1016,7 hPa 0,0 l/m 5,1 km/h (1 Bft) W 273 0 min 0,000 mm 0,0 UV-I 0 W/m -1,3 C -0,6 C 9,7 km/h (2 Bft) 100,00 %
16.01.2016 08:00 -0,7 C 95 % 1016,8 hPa 0,0 l/m 5,2 km/h (1 Bft) W-SW 250 0 min 0,000 mm 0,0 UV-I 1 W/m -1,4 C -0,7 C 12,9 km/h (3 Bft) 99,06 %
16.01.2016 08:05 -0,6 C 95 % 1016,8 hPa 0,0 l/m 5,4 km/h (1 Bft) W-SW 248 0 min 0,000 mm 0,0 UV-I 5 W/m -1,3 C -0,6 C 11,3 km/h (2 Bft) 100,00 %
16.01.2016 08:10 -0,6 C 95 % 1017,0 hPa 0,0 l/m 5,3 km/h (1 Bft) W-NW 288 0 min 0,000 mm 0,0 UV-I 6 W/m -1,3 C -0,6 C 11,3 km/h (2 Bft) 98,46 %
16.01.2016 08:15 -0,7 C 94 % 1017,0 hPa 0,0 l/m 4,0 km/h (1 Bft) W-NW 294 0 min 0,000 mm 0,0 UV-I 8 W/m -1,5 C -0,7 C 11,3 km/h (2 Bft) 100,00 %
16.01.2016 08:20 -0,8 C 94 % 1017,1 hPa 0,0 l/m 3,0 km/h (1 Bft) W 269 0 min 0,000 mm 0,0 UV-I 9 W/m -1,6 C -0,8 C 8,0 km/h (2 Bft) 100,00 %
16.01.2016 08:25 -0,8 C 94 % 1017,2 hPa 0,0 l/m 4,1 km/h (1 Bft) W 263 0 min 0,000 mm 0,0 UV-I 11 W/m -1,6 C -0,8 C 12,9 km/h (3 Bft) 100,00 %
16.01.2016 08:30 -0,8 C 95 % 1017,3 hPa 0,0 l/m 4,8 km/h (1 Bft) W 268 0 min 0,000 mm 0,0 UV-I 11 W/m -1,5 C -0,8 C 9,7 km/h (2 Bft) 98,17 %
16.01.2016 08:35 -0,8 C 94 % 1017,4 hPa 0,0 l/m 4,4 km/h (1 Bft) W-NW 286 0 min 0,000 mm 0,0 UV-I 12 W/m -1,6 C -0,8 C 11,3 km/h (2 Bft) 99,15 %
16.01.2016 08:40 -0,9 C 94 % 1017,5 hPa 0,0 l/m 1,3 km/h (1 Bft) NW 322 0 min 0,000 mm 0,0 UV-I 15 W/m -1,7 C -0,9 C 4,8 km/h (1 Bft) 99,19 %
16.01.2016 08:45 -0,9 C 95 % 1017,6 hPa 0,0 l/m 2,8 km/h (1 Bft) W 272 0 min 0,000 mm 0,0 UV-I 16 W/m -1,6 C -0,9 C 4,8 km/h (1 Bft) 99,08 %
16.01.2016 08:50 -0,8 C 95 % 1017,7 hPa 0,0 l/m 3,2 km/h (1 Bft) W-NW 284 0 min 0,000 mm 0,0 UV-I 18 W/m -1,5 C -0,8 C 6,4 km/h (2 Bft) 98,31 %
16.01.2016 08:55 -0,8 C 95 % 1017,7 hPa 0,0 l/m 1,9 km/h (1 Bft) W-NW 297 0 min 0,000 mm 0,0 UV-I 17 W/m -1,5 C -0,8 C 4,8 km/h (1 Bft) 99,21 %
16.01.2016 09:00 -0,7 C 95 % 1017,8 hPa 0,0 l/m 2,5 km/h (1 Bft) NW 304 0 min 0,000 mm 0,0 UV-I 16 W/m -1,4 C -0,7 C 9,7 km/h (2 Bft) 99,15 %
16.01.2016 09:05 -0,7 C 94 % 1017,9 hPa 0,0 l/m 0,8 km/h (0 Bft) W-NW 296 0 min 0,000 mm 0,0 UV-I 14 W/m -1,5 C -0,7 C 4,8 km/h (1 Bft) 98,11 %
16.01.2016 09:10 -0,7 C 94 % 1017,9 hPa 0,0 l/m 0,5 km/h (0 Bft) W-NW 296 0 min 0,000 mm 0,0 UV-I 15 W/m -1,5 C -0,7 C 3,2 km/h (1 Bft) 100,00 %
16.01.2016 09:15 -0,7 C 94 % 1018,0 hPa 0,0 l/m 2,0 km/h (1 Bft) NW 312 0 min 0,000 mm 0,0 UV-I 13 W/m -1,5 C -0,7 C 4,8 km/h (1 Bft) 99,21 %
16.01.2016 09:20 -0,6 C 94 % 1018,2 hPa 0,0 l/m 1,1 km/h (1 Bft) W-NW 288 0 min 0,000 mm 0,0 UV-I 12 W/m -1,4 C -0,6 C 4,8 km/h (1 Bft) 99,11 %
16.01.2016 09:25 -0,6 C 94 % 1018,2 hPa 0,0 l/m 2,4 km/h (1 Bft) W-NW 303 0 min 0,000 mm 0,0 UV-I 16 W/m -1,4 C -0,6 C 6,4 km/h (2 Bft) 97,56 %
16.01.2016 09:30 -0,6 C 94 % 1018,3 hPa 0,0 l/m 1,7 km/h (1 Bft) N-NW 328 0 min 0,000 mm 0,0 UV-I 27 W/m -1,4 C -0,6 C 4,8 km/h (1 Bft) 96,55 %
16.01.2016 09:35 -0,5 C 94 % 1018,3 hPa 0,0 l/m 0,6 km/h (0 Bft) NW 317 0 min 0,000 mm 0,0 UV-I 32 W/m -1,3 C -0,5 C 3,2 km/h (1 Bft) 98,20 %
16.01.2016 09:40 -0,6 C 94 % 1018,4 hPa 0,0 l/m 1,4 km/h (1 Bft) N-NW 332 0 min 0,000 mm 0,0 UV-I 34 W/m -1,4 C -0,6 C 4,8 km/h (1 Bft) 97,64 %
16.01.2016 09:45 -0,6 C 94 % 1018,4 hPa 0,0 l/m 1,0 km/h (0 Bft) NW 316 0 min 0,000 mm 0,0 UV-I 39 W/m -1,4 C -0,6 C 4,8 km/h (1 Bft) 96,52 %
16.01.2016 09:50 -0,6 C 93 % 1018,5 hPa 0,0 l/m 1,9 km/h (1 Bft) W-NW 286 0 min 0,000 mm 0,0 UV-I 40 W/m -1,6 C -0,6 C 11,3 km/h (2 Bft) 96,58 %
16.01.2016 09:55 -0,7 C 93 % 1018,6 hPa 0,0 l/m 3,0 km/h (1 Bft) NW 307 0 min 0,000 mm 0,0 UV-I 40 W/m -1,7 C -0,7 C 8,0 km/h (2 Bft) 98,17 %
16.01.2016 10:00 -0,7 C 93 % 1018,6 hPa 0,0 l/m 2,1 km/h (1 Bft) W-NW 282 0 min 0,000 mm 0,0 UV-I 40 W/m -1,7 C -0,7 C 8,0 km/h (2 Bft) 99,19 %
16.01.2016 10:05 -0,7 C 92 % 1018,7 hPa 0,0 l/m 2,2 km/h (1 Bft) NW 317 0 min 0,000 mm 0,0 UV-I 45 W/m -1,8 C -0,7 C 6,4 km/h (2 Bft) 97,46 %
16.01.2016 10:10 -0,7 C 92 % 1018,8 hPa 0,0 l/m 1,7 km/h (1 Bft) W-NW 294 0 min 0,000 mm 0,0 UV-I 51 W/m -1,8 C -0,7 C 4,8 km/h (1 Bft) 99,15 %
16.01.2016 10:15 -0,7 C 92 % 1018,8 hPa 0,0 l/m 1,6 km/h (1 Bft) N-NW 330 0 min 0,000 mm 0,0 UV-I 59 W/m -1,8 C -0,7 C 4,8 km/h (1 Bft) 100,00 %
16.01.2016 10:20 -0,6 C 92 % 1018,8 hPa 0,0 l/m 2,5 km/h (1 Bft) N-NW 327 0 min 0,000 mm 0,0 UV-I 74 W/m -1,7 C -0,6 C 6,4 km/h (2 Bft) 100,00 %
16.01.2016 10:25 -0,6 C 91 % 1018,9 hPa 0,0 l/m 1,8 km/h (1 Bft) W 260 0 min 0,000 mm 0,0 UV-I 91 W/m -1,9 C -0,6 C 6,4 km/h (2 Bft) 100,00 %
16.01.2016 10:30 -0,5 C 91 % 1018,9 hPa 0,0 l/m 1,5 km/h (1 Bft) SW 220 0 min 0,000 mm 0,0 UV-I 106 W/m -1,8 C -0,5 C 4,8 km/h (1 Bft) 99,15 %
16.01.2016 10:35 -0,4 C 91 % 1018,9 hPa 0,0 l/m 2,3 km/h (1 Bft) W-NW 295 0 min 0,000 mm 0,0 UV-I 142 W/m -1,7 C -0,4 C 6,4 km/h (2 Bft) 99,00 %
16.01.2016 10:40 -0,3 C 90 % 1019,0 hPa 0,0 l/m 3,3 km/h (1 Bft) W-SW 248 5 min 0,000 mm 0,0 UV-I 217 W/m -1,7 C -0,3 C 9,7 km/h (2 Bft) 98,43 %
16.01.2016 10:45 -0,2 C 90 % 1019,1 hPa 0,0 l/m 4,9 km/h (1 Bft) W 271 5 min 0,000 mm 0,0 UV-I 215 W/m -1,6 C -0,2 C 11,3 km/h (2 Bft) 100,00 %
16.01.2016 10:50 -0,2 C 89 % 1019,2 hPa 0,0 l/m 4,3 km/h (1 Bft) W 276 0 min 0,000 mm 0,0 UV-I 174 W/m -1,8 C -0,2 C 9,7 km/h (2 Bft) 99,15 %
16.01.2016 10:55 -0,3 C 88 % 1019,2 hPa 0,0 l/m 4,5 km/h (1 Bft) W 265 0 min 0,000 mm 0,0 UV-I 153 W/m -2,0 C -0,3 C 12,9 km/h (3 Bft) 100,00 %
16.01.2016 11:00 -0,3 C 89 % 1019,2 hPa 0,0 l/m 2,8 km/h (1 Bft) W-SW 254 0 min 0,051 mm 0,0 UV-I 129 W/m -1,9 C -0,3 C 11,3 km/h (2 Bft) 100,00 %
16.01.2016 11:05 -0,4 C 89 % 1019,2 hPa 0,0 l/m 5,1 km/h (1 Bft) W-SW 254 0 min 0,000 mm 0,0 UV-I 124 W/m -2,0 C -0,4 C 14,5 km/h (3 Bft) 98,26 %
16.01.2016 11:10 -0,4 C 88 % 1019,3 hPa 0,0 l/m 3,5 km/h (1 Bft) W-SW 243 0 min 0,000 mm 0,0 UV-I 141 W/m -2,1 C -0,4 C 11,3 km/h (2 Bft) 100,00 %
16.01.2016 11:15 -0,3 C 90 % 1019,3 hPa 0,0 l/m 4,1 km/h (1 Bft) W-SW 250 0 min 0,000 mm 0,2 UV-I 164 W/m -1,7 C -0,3 C 8,0 km/h (2 Bft) 98,11 %
16.01.2016 11:20 -0,3 C 89 % 1019,3 hPa 0,0 l/m 4,2 km/h (1 Bft) W-NW 297 0 min 0,000 mm 0,5 UV-I 152 W/m -1,9 C -0,3 C 9,7 km/h (2 Bft) 98,45 %
16.01.2016 11:25 -0,3 C 87 % 1019,2 hPa 0,2 l/m 5,4 km/h (1 Bft) W 266 0 min 0,000 mm 0,5 UV-I 163 W/m -2,2 C -0,3 C 12,9 km/h (3 Bft) 96,52 %
16.01.2016 11:30 0,0 C 86 % 1019,2 hPa 0,0 l/m 6,6 km/h (2 Bft) W-NW 294 5 min 0,000 mm 0,6 UV-I 300 W/m -2,1 C -0,2 C 16,1 km/h (3 Bft) 97,52 %
16.01.2016 11:35 0,1 C 85 % 1019,2 hPa 0,2 l/m 6,6 km/h (2 Bft) N-NW 331 5 min 0,000 mm 0,6 UV-I 325 W/m -2,1 C -0,1 C 19,3 km/h (3 Bft) 97,22 %
16.01.2016 11:40 0,2 C 84 % 1019,3 hPa 0,0 l/m 6,5 km/h (2 Bft) W 267 5 min 0,000 mm 0,6 UV-I 291 W/m -2,2 C 0,1 C 14,5 km/h (3 Bft) 96,52 %
16.01.2016 11:45 0,0 C 84 % 1019,2 hPa 0,2 l/m 6,7 km/h (2 Bft) W-SW 244 0 min 0,000 mm 0,6 UV-I 165 W/m -2,4 C -0,3 C 14,5 km/h (3 Bft) 96,61 %
16.01.2016 11:50 -0,2 C 83 % 1019,2 hPa 0,0 l/m 9,4 km/h (2 Bft) W-SW 246 0 min 0,000 mm 0,6 UV-I 129 W/m -2,7 C -3,2 C 17,7 km/h (3 Bft) 99,17 %
16.01.2016 11:55 -0,4 C 83 % 1019,3 hPa 0,0 l/m 9,1 km/h (2 Bft) W 267 0 min 0,000 mm 0,6 UV-I 108 W/m -2,9 C -3,1 C 16,1 km/h (3 Bft) 100,00 %
16.01.2016 12:00 -0,3 C 84 % 1019,3 hPa 0,0 l/m 7,2 km/h (2 Bft) W 261 5 min 0,076 mm 0,6 UV-I 228 W/m -2,7 C -1,1 C 12,9 km/h (3 Bft) 100,00 %
16.01.2016 12:05 0,2 C 83 % 1019,5 hPa 0,0 l/m 6,2 km/h (2 Bft) W-SW 253 5 min 0,000 mm 0,7 UV-I 418 W/m -2,3 C 0,2 C 19,3 km/h (3 Bft) 100,00 %
16.01.2016 12:10 0,1 C 82 % 1019,5 hPa 0,0 l/m 4,4 km/h (1 Bft) SW 217 5 min 0,000 mm 0,6 UV-I 229 W/m -2,6 C 0,1 C 9,7 km/h (2 Bft) 98,21 %
16.01.2016 12:15 0,1 C 80 % 1019,5 hPa 0,0 l/m 7,8 km/h (2 Bft) W-SW 257 0 min 0,000 mm 0,5 UV-I 191 W/m -2,9 C -1,3 C 24,1 km/h (4 Bft) 97,62 %
16.01.2016 12:20 0,0 C 81 % 1019,5 hPa 0,0 l/m 8,7 km/h (2 Bft) W 271 0 min 0,000 mm 0,5 UV-I 184 W/m -2,9 C -2,3 C 19,3 km/h (3 Bft) 98,80 %
16.01.2016 12:30 0,2 C 80 % 1019,5 hPa 0,2 l/m 8,2 km/h (2 Bft) W 260 10 min 0,000 mm 0,6 UV-I 230 W/m -2,8 C -1,6 C 16,1 km/h (3 Bft) 99,62 %
16.01.2016 12:35 0,2 C 80 % 1019,5 hPa 0,0 l/m 5,7 km/h (1 Bft) W-NW 286 5 min 0,000 mm 0,6 UV-I 238 W/m -2,8 C 0,2 C 12,9 km/h (3 Bft) 99,11 %
16.01.2016 12:40 0,2 C 79 % 1019,5 hPa 0,0 l/m 6,8 km/h (2 Bft) W-SW 257 5 min 0,000 mm 0,6 UV-I 247 W/m -3,0 C -0,2 C 17,7 km/h (3 Bft) 98,37 %
16.01.2016 12:45 0,1 C 80 % 1019,5 hPa 0,0 l/m 7,5 km/h (2 Bft) W 277 0 min 0,000 mm 0,6 UV-I 188 W/m -2,9 C -1,0 C 16,1 km/h (3 Bft) 99,17 %
16.01.2016 12:50 0,1 C 81 % 1019,5 hPa 0,0 l/m 5,2 km/h (1 Bft) SW 236 5 min 0,000 mm 0,6 UV-I 226 W/m -2,8 C 0,1 C 16,1 km/h (3 Bft) 99,15 %
16.01.2016 12:55 0,1 C 81 % 1019,5 hPa 0,0 l/m 6,8 km/h (2 Bft) W-SW 241 0 min 0,000 mm 0,5 UV-I 189 W/m -2,8 C -0,3 C 17,7 km/h (3 Bft) 99,17 %
16.01.2016 13:00 0,1 C 80 % 1019,6 hPa 0,0 l/m 8,4 km/h (2 Bft) W 265 5 min 0,102 mm 0,5 UV-I 221 W/m -2,9 C -1,9 C 16,1 km/h (3 Bft) 97,32 %
16.01.2016 13:05 0,2 C 79 % 1019,5 hPa 0,0 l/m 8,2 km/h (2 Bft) W-NW 284 5 min 0,000 mm 0,5 UV-I 226 W/m -3,0 C -1,6 C 14,5 km/h (3 Bft) 97,32 %
16.01.2016 13:10 0,2 C 79 % 1019,5 hPa 0,0 l/m 6,1 km/h (2 Bft) W 268 5 min 0,000 mm 0,5 UV-I 193 W/m -3,0 C 0,2 C 16,1 km/h (3 Bft) 96,90 %
16.01.2016 13:15 0,2 C 80 % 1019,6 hPa 0,0 l/m 3,7 km/h (1 Bft) W-SW 253 5 min 0,000 mm 0,5 UV-I 243 W/m -2,8 C 0,2 C 11,3 km/h (2 Bft) 94,50 %
16.01.2016 13:20 0,3 C 79 % 1019,6 hPa 0,2 l/m 3,8 km/h (1 Bft) W 280 5 min 0,000 mm 0,5 UV-I 223 W/m -2,9 C 0,3 C 14,5 km/h (3 Bft) 96,67 %
16.01.2016 13:25 0,3 C 79 % 1019,5 hPa 0,0 l/m 4,4 km/h (1 Bft) W-NW 303 5 min 0,000 mm 0,5 UV-I 232 W/m -2,9 C 0,3 C 11,3 km/h (2 Bft) 99,17 %
16.01.2016 13:30 0,3 C 77 % 1019,5 hPa 0,0 l/m 4,2 km/h (1 Bft) W 278 5 min 0,000 mm 0,5 UV-I 215 W/m -3,2 C 0,3 C 14,5 km/h (3 Bft) 99,08 %
16.01.2016 13:35 0,2 C 79 % 1019,5 hPa 0,0 l/m 4,9 km/h (1 Bft) W 271 0 min 0,000 mm 0,5 UV-I 163 W/m -3,0 C 0,2 C 11,3 km/h (2 Bft) 99,15 %
16.01.2016 13:40 0,1 C 77 % 1019,5 hPa 0,0 l/m 9,9 km/h (2 Bft) W-SW 246 0 min 0,000 mm 0,3 UV-I 145 W/m -3,4 C -3,3 C 16,1 km/h (3 Bft) 97,39 %
16.01.2016 13:45 0,1 C 77 % 1019,5 hPa 0,0 l/m 9,8 km/h (2 Bft) W 261 0 min 0,000 mm 0,0 UV-I 142 W/m -3,4 C -3,2 C 16,1 km/h (3 Bft) 99,17 %
16.01.2016 13:50 0,1 C 77 % 1019,6 hPa 0,0 l/m 6,3 km/h (2 Bft) W-SW 254 0 min 0,000 mm 0,0 UV-I 154 W/m -3,4 C 0,1 C 14,5 km/h (3 Bft) 100,00 %
16.01.2016 13:55 0,2 C 79 % 1019,6 hPa 0,0 l/m 5,7 km/h (1 Bft) W-NW 285 5 min 0,000 mm 0,0 UV-I 181 W/m -3,0 C 0,2 C 11,3 km/h (2 Bft) 98,17 %
16.01.2016 14:00 0,7 C 76 % 1019,6 hPa 0,0 l/m 6,3 km/h (2 Bft) W 267 5 min 0,076 mm 0,3 UV-I 354 W/m -3,0 C 0,7 C 16,1 km/h (3 Bft) 99,13 %
16.01.2016 14:05 0,9 C 76 % 1019,6 hPa 0,0 l/m 6,6 km/h (2 Bft) W-SW 252 5 min 0,000 mm 0,1 UV-I 339 W/m -2,8 C 0,7 C 14,5 km/h (3 Bft) 98,33 %
16.01.2016 14:10 0,9 C 72 % 1019,6 hPa 0,0 l/m 4,1 km/h (1 Bft) W 280 5 min 0,000 mm 0,0 UV-I 318 W/m -3,6 C 0,9 C 12,9 km/h (3 Bft) 99,17 %
16.01.2016 14:15 0,8 C 71 % 1019,5 hPa 0,0 l/m 3,5 km/h (1 Bft) W-NW 286 5 min 0,000 mm 0,0 UV-I 294 W/m -3,8 C 0,8 C 11,3 km/h (2 Bft) 98,33 %
16.01.2016 14:20 0,6 C 72 % 1019,7 hPa 0,0 l/m 4,0 km/h (1 Bft) W 259 5 min 0,000 mm 0,0 UV-I 190 W/m -3,9 C 0,6 C 11,3 km/h (2 Bft) 99,11 %
16.01.2016 14:25 0,5 C 69 % 1019,7 hPa 0,0 l/m 6,8 km/h (2 Bft) W-SW 245 5 min 0,000 mm 0,0 UV-I 150 W/m -4,5 C 0,1 C 14,5 km/h (3 Bft) 98,35 %
16.01.2016 14:30 0,5 C 69 % 1019,6 hPa 0,0 l/m 12,0 km/h (2 Bft) W-SW 257 5 min 0,000 mm 0,0 UV-I 176 W/m -4,5 C -4,4 C 20,9 km/h (4 Bft) 99,12 %
16.01.2016 14:35 0,6 C 68 % 1019,7 hPa 0,0 l/m 11,2 km/h (2 Bft) W 277 5 min 0,000 mm 0,0 UV-I 225 W/m -4,6 C -3,7 C 17,7 km/h (3 Bft) 96,61 %
16.01.2016 14:40 0,4 C 67 % 1019,7 hPa 0,0 l/m 11,5 km/h (2 Bft) W-SW 246 5 min 0,000 mm 0,0 UV-I 159 W/m -5,0 C -4,2 C 20,9 km/h (4 Bft) 96,67 %
16.01.2016 14:45 0,4 C 68 % 1019,7 hPa 0,0 l/m 10,5 km/h (2 Bft) W 259 5 min 0,000 mm 0,0 UV-I 148 W/m -4,8 C -3,4 C 19,3 km/h (3 Bft) 95,88 %
16.01.2016 14:50 0,4 C 67 % 1019,8 hPa 0,0 l/m 8,4 km/h (2 Bft) W 261 5 min 0,000 mm 0,0 UV-I 159 W/m -5,0 C -1,6 C 19,3 km/h (3 Bft) 97,12 %
16.01.2016 14:55 0,4 C 69 % 1019,8 hPa 0,0 l/m 7,4 km/h (2 Bft) W 275 5 min 0,000 mm 0,0 UV-I 126 W/m -4,6 C -0,6 C 14,5 km/h (3 Bft) 97,22 %
16.01.2016 15:00 0,3 C 68 % 1019,8 hPa 0,0 l/m 9,2 km/h (2 Bft) N-NW 327 0 min 0,076 mm 0,0 UV-I 93 W/m -4,9 C -2,4 C 17,7 km/h (3 Bft) 99,19 %
16.01.2016 15:05 0,3 C 71 % 1019,9 hPa 0,0 l/m 8,5 km/h (2 Bft) W 268 0 min 0,000 mm 0,0 UV-I 85 W/m -4,3 C -1,8 C 22,5 km/h (4 Bft) 100,00 %
16.01.2016 15:10 0,2 C 71 % 1019,9 hPa 0,0 l/m 10,4 km/h (2 Bft) W 268 0 min 0,000 mm 0,0 UV-I 79 W/m -4,4 C -3,6 C 22,5 km/h (4 Bft) 98,29 %
16.01.2016 15:15 0,2 C 70 % 1020,0 hPa 0,0 l/m 10,0 km/h (2 Bft) W-SW 243 0 min 0,000 mm 0,0 UV-I 72 W/m -4,6 C -3,2 C 20,9 km/h (4 Bft) 100,00 %
16.01.2016 15:20 0,1 C 70 % 1019,9 hPa 0,0 l/m 8,7 km/h (2 Bft) W 274 0 min 0,000 mm 0,0 UV-I 55 W/m -4,7 C -2,2 C 16,1 km/h (3 Bft) 99,15 %
16.01.2016 15:25 0,0 C 71 % 1020,0 hPa 0,0 l/m 6,6 km/h (2 Bft) W 280 0 min 0,000 mm 0,0 UV-I 47 W/m -4,6 C -0,2 C 12,9 km/h (3 Bft) 97,52 %
16.01.2016 15:30 -0,1 C 72 % 1020,1 hPa 0,0 l/m 5,5 km/h (1 Bft) W 265 0 min 0,000 mm 0,0 UV-I 44 W/m -4,5 C -0,1 C 20,9 km/h (4 Bft) 100,00 %
16.01.2016 15:35 -0,1 C 73 % 1020,1 hPa 0,0 l/m 6,4 km/h (2 Bft) W-NW 283 0 min 0,000 mm 0,0 UV-I 35 W/m -4,3 C -0,1 C 20,9 km/h (4 Bft) 100,00 %
16.01.2016 15:40 -0,1 C 73 % 1020,1 hPa 0,0 l/m 7,4 km/h (2 Bft) W-SW 258 0 min 0,000 mm 0,0 UV-I 32 W/m -4,3 C -1,1 C 14,5 km/h (3 Bft) 99,17 %
16.01.2016 15:45 -0,2 C 75 % 1020,1 hPa 0,0 l/m 7,8 km/h (2 Bft) W 264 0 min 0,000 mm 0,0 UV-I 29 W/m -4,1 C -1,7 C 12,9 km/h (3 Bft) 99,15 %
16.01.2016 15:50 -0,2 C 76 % 1020,2 hPa 0,0 l/m 8,2 km/h (2 Bft) W 272 0 min 0,000 mm 0,0 UV-I 24 W/m -3,9 C -2,1 C 14,5 km/h (3 Bft) 99,17 %
16.01.2016 15:55 -0,2 C 76 % 1020,1 hPa 0,0 l/m 8,0 km/h (2 Bft) W 270 0 min 0,000 mm 0,0 UV-I 21 W/m -3,9 C -1,9 C 16,1 km/h (3 Bft) 100,00 %
16.01.2016 16:00 -0,3 C 77 % 1020,1 hPa 0,0 l/m 11,3 km/h (2 Bft) W-SW 247 0 min 0,025 mm 0,0 UV-I 18 W/m -3,8 C -4,8 C 20,9 km/h (4 Bft) 100,00 %
16.01.2016 16:05 -0,3 C 78 % 1020,2 hPa 0,0 l/m 11,3 km/h (2 Bft) W-SW 247 0 min 0,000 mm 0,0 UV-I 16 W/m -3,7 C -4,8 C 17,7 km/h (3 Bft) 100,00 %
16.01.2016 16:10 -0,4 C 79 % 1020,2 hPa 0,0 l/m 7,8 km/h (2 Bft) W 262 0 min 0,000 mm 0,0 UV-I 20 W/m -3,6 C -1,9 C 11,3 km/h (2 Bft) 99,79 %
16.01.2016 16:15 -0,5 C 80 % 1020,1 hPa 0,0 l/m 9,5 km/h (2 Bft) W 263 0 min 0,000 mm 0,0 UV-I 13 W/m -3,5 C -3,6 C 16,1 km/h (3 Bft) 100,00 %
16.01.2016 16:20 -0,6 C 81 % 1020,1 hPa 0,0 l/m 10,1 km/h (2 Bft) W-SW 248 0 min 0,000 mm 0,0 UV-I 9 W/m -3,4 C -4,2 C 16,1 km/h (3 Bft) 99,19 %
16.01.2016 16:25 -0,7 C 81 % 1020,2 hPa 0,0 l/m 10,9 km/h (2 Bft) W-SW 256 0 min 0,000 mm 0,0 UV-I 6 W/m -3,5 C -5,0 C 16,1 km/h (3 Bft) 95,50 %
16.01.2016 16:30 -0,7 C 81 % 1020,1 hPa 0,0 l/m 13,3 km/h (3 Bft) W-SW 255 0 min 0,000 mm 0,0 UV-I 5 W/m -3,5 C -6,7 C 19,3 km/h (3 Bft) 97,46 %
16.01.2016 16:35 -0,8 C 81 % 1020,1 hPa 0,0 l/m 9,7 km/h (2 Bft) W 261 0 min 0,000 mm 0,0 UV-I 5 W/m -3,6 C -4,1 C 17,7 km/h (3 Bft) 96,61 %
16.01.2016 16:40 -0,8 C 81 % 1020,1 hPa 0,0 l/m 9,4 km/h (2 Bft) W 260 0 min 0,000 mm 0,0 UV-I 0 W/m -3,6 C -3,8 C 19,3 km/h (3 Bft) 98,25 %
16.01.2016 16:45 -0,9 C 81 % 1020,2 hPa 0,0 l/m 11,2 km/h (2 Bft) W-SW 255 0 min 0,000 mm 0,0 UV-I 0 W/m -3,7 C -5,4 C 17,7 km/h (3 Bft) 97,52 %
16.01.2016 16:50 -0,9 C 82 % 1020,2 hPa 0,0 l/m 9,8 km/h (2 Bft) W 277 0 min 0,000 mm 0,0 UV-I 0 W/m -3,6 C -4,3 C 19,3 km/h (3 Bft) 97,25 %
16.01.2016 16:55 -0,9 C 82 % 1020,3 hPa 0,0 l/m 8,5 km/h (2 Bft) W-SW 257 0 min 0,000 mm 0,0 UV-I 0 W/m -3,6 C -3,1 C 12,9 km/h (3 Bft) 96,05 %
16.01.2016 17:05 -1,1 C 84 % 1020,4 hPa 0,0 l/m 11,5 km/h (2 Bft) W-SW 250 0 min 0,026 mm 0,0 UV-I 0 W/m -3,4 C -5,9 C 14,5 km/h (3 Bft) 99,29 %
16.01.2016 17:10 -1,1 C 84 % 1020,4 hPa 0,0 l/m 9,1 km/h (2 Bft) W 280 0 min 0,000 mm 0,0 UV-I 0 W/m -3,4 C -3,9 C 14,5 km/h (3 Bft) 100,00 %
16.01.2016 17:15 -1,1 C 84 % 1020,4 hPa 0,0 l/m 9,4 km/h (2 Bft) W 264 0 min 0,000 mm 0,0 UV-I 0 W/m -3,4 C -4,1 C 14,5 km/h (3 Bft) 100,00 %
16.01.2016 17:20 -1,1 C 85 % 1020,4 hPa 0,0 l/m 8,0 km/h (2 Bft) S-SW 212 0 min 0,000 mm 0,0 UV-I 0 W/m -3,3 C -2,8 C 12,9 km/h (3 Bft) 100,00 %
16.01.2016 17:25 -1,2 C 85 % 1020,4 hPa 0,0 l/m 7,7 km/h (2 Bft) SW 236 0 min 0,000 mm 0,0 UV-I 0 W/m -3,4 C -2,6 C 14,5 km/h (3 Bft) 98,31 %
16.01.2016 17:30 -1,2 C 85 % 1020,4 hPa 0,0 l/m 9,4 km/h (2 Bft) SW 233 0 min 0,000 mm 0,0 UV-I 0 W/m -3,4 C -4,2 C 17,7 km/h (3 Bft) 100,00 %
16.01.2016 17:35 -1,2 C 85 % 1020,4 hPa 0,0 l/m 7,5 km/h (2 Bft) SW 216 0 min 0,000 mm 0,0 UV-I 0 W/m -3,4 C -2,4 C 16,1 km/h (3 Bft) 99,13 %
16.01.2016 17:40 -1,3 C 85 % 1020,4 hPa 0,0 l/m 7,4 km/h (2 Bft) W-SW 252 0 min 0,000 mm 0,0 UV-I 0 W/m -3,5 C -2,4 C 11,3 km/h (2 Bft) 100,00 %
16.01.2016 17:45 -1,3 C 85 % 1020,4 hPa 0,0 l/m 8,3 km/h (2 Bft) S-SW 208 0 min 0,000 mm 0,0 UV-I 0 W/m -3,5 C -3,3 C 14,5 km/h (3 Bft) 99,26 %
16.01.2016 17:50 -1,3 C 85 % 1020,5 hPa 0,0 l/m 6,4 km/h (2 Bft) SW 217 0 min 0,000 mm 0,0 UV-I 0 W/m -3,5 C -1,3 C 11,3 km/h (2 Bft) 95,41 %
16.01.2016 17:55 -1,3 C 85 % 1020,5 hPa 0,0 l/m 7,2 km/h (2 Bft) S-SW 194 0 min 0,000 mm 0,0 UV-I 0 W/m -3,5 C -2,2 C 12,9 km/h (3 Bft) 98,35 %
16.01.2016 18:00 -1,3 C 86 % 1020,6 hPa 0,0 l/m 6,7 km/h (2 Bft) SW 233 0 min 0,000 mm 0,0 UV-I 0 W/m -3,3 C -1,6 C 12,9 km/h (3 Bft) 99,15 %
16.01.2016 18:05 -1,3 C 87 % 1020,5 hPa 0,0 l/m 6,1 km/h (2 Bft) S 191 0 min 0,000 mm 0,0 UV-I 0 W/m -3,2 C -1,3 C 12,9 km/h (3 Bft) 100,00 %
16.01.2016 18:10 -1,4 C 87 % 1020,5 hPa 0,0 l/m 5,0 km/h (1 Bft) S-SW 200 0 min 0,000 mm 0,0 UV-I 0 W/m -3,3 C -1,4 C 8,0 km/h (2 Bft) 100,00 %
16.01.2016 18:15 -1,4 C 87 % 1020,7 hPa 0,0 l/m 5,9 km/h (2 Bft) S-SW 212 0 min 0,000 mm 0,0 UV-I 0 W/m -3,3 C -1,4 C 9,7 km/h (2 Bft) 100,00 %
16.01.2016 18:20 -1,4 C 87 % 1020,7 hPa 0,0 l/m 6,3 km/h (2 Bft) SW 227 0 min 0,000 mm 0,0 UV-I 0 W/m -3,3 C -1,4 C 9,7 km/h (2 Bft) 98,21 %
16.01.2016 18:25 -1,4 C 87 % 1020,6 hPa 0,0 l/m 7,0 km/h (2 Bft) S-SW 196 0 min 0,000 mm 0,0 UV-I 0 W/m -3,3 C -2,0 C 11,3 km/h (2 Bft) 98,36 %
16.01.2016 18:30 -1,4 C 87 % 1020,6 hPa 0,0 l/m 8,7 km/h (2 Bft) SW 236 0 min 0,000 mm 0,0 UV-I 0 W/m -3,3 C -3,8 C 17,7 km/h (3 Bft) 97,52 %
16.01.2016 18:35 -1,4 C 87 % 1020,7 hPa 0,0 l/m 9,4 km/h (2 Bft) S 182 0 min 0,000 mm 0,0 UV-I 0 W/m -3,3 C -4,5 C 16,1 km/h (3 Bft) 97,25 %
16.01.2016 18:40 -1,4 C 87 % 1020,6 hPa 0,0 l/m 7,7 km/h (2 Bft) S-SW 211 0 min 0,000 mm 0,0 UV-I 0 W/m -3,3 C -2,8 C 14,5 km/h (3 Bft) 97,56 %
16.01.2016 18:45 -1,4 C 87 % 1020,6 hPa 0,0 l/m 8,6 km/h (2 Bft) SW 227 0 min 0,000 mm 0,0 UV-I 0 W/m -3,3 C -3,7 C 16,1 km/h (3 Bft) 97,46 %
16.01.2016 18:50 -1,4 C 87 % 1020,5 hPa 0,0 l/m 5,9 km/h (2 Bft) W-SW 239 0 min 0,000 mm 0,0 UV-I 0 W/m -3,3 C -1,4 C 9,7 km/h (2 Bft) 97,44 %
16.01.2016 18:55 -1,5 C 86 % 1020,5 hPa 0,0 l/m 6,1 km/h (2 Bft) SW 215 0 min 0,000 mm 0,0 UV-I 0 W/m -3,5 C -1,5 C 11,3 km/h (2 Bft) 97,32 %
16.01.2016 19:00 -1,5 C 87 % 1020,5 hPa 0,0 l/m 5,4 km/h (1 Bft) SW 214 0 min 0,000 mm 0,0 UV-I 0 W/m -3,4 C -1,5 C 9,7 km/h (2 Bft) 99,13 %
16.01.2016 19:05 -1,6 C 87 % 1020,4 hPa 0,0 l/m 5,8 km/h (2 Bft) W-SW 251 0 min 0,000 mm 0,0 UV-I 0 W/m -3,5 C -1,6 C 9,7 km/h (2 Bft) 98,41 %
16.01.2016 19:10 -1,7 C 87 % 1020,5 hPa 0,0 l/m 6,2 km/h (2 Bft) S-SW 209 0 min 0,000 mm 0,0 UV-I 0 W/m -3,6 C -1,7 C 11,3 km/h (2 Bft) 99,15 %
16.01.2016 19:15 -1,7 C 87 % 1020,4 hPa 0,0 l/m 6,2 km/h (2 Bft) SW 231 0 min 0,000 mm 0,0 UV-I 0 W/m -3,6 C -1,7 C 11,3 km/h (2 Bft) 100,00 %
16.01.2016 19:20 -1,8 C 88 % 1020,3 hPa 0,0 l/m 4,7 km/h (1 Bft) SW 216 0 min 0,000 mm 0,0 UV-I 0 W/m -3,5 C -1,8 C 8,0 km/h (2 Bft) 98,41 %
16.01.2016 19:25 -1,7 C 88 % 1020,3 hPa 0,0 l/m 4,9 km/h (1 Bft) SW 234 0 min 0,000 mm 0,0 UV-I 0 W/m -3,4 C -1,7 C 9,7 km/h (2 Bft) 100,00 %
16.01.2016 19:30 -1,8 C 88 % 1020,3 hPa 0,0 l/m 4,9 km/h (1 Bft) SW 222 0 min 0,000 mm 0,0 UV-I 0 W/m -3,5 C -1,8 C 8,0 km/h (2 Bft) 98,37 %
16.01.2016 19:35 -1,9 C 88 % 1020,1 hPa 0,0 l/m 5,7 km/h (1 Bft) S-SW 213 0 min 0,000 mm 0,0 UV-I 0 W/m -3,6 C -1,9 C 8,0 km/h (2 Bft) 100,00 %
16.01.2016 19:40 -1,9 C 88 % 1020,1 hPa 0,0 l/m 5,5 km/h (1 Bft) S-SW 199 0 min 0,000 mm 0,0 UV-I 0 W/m -3,6 C -1,9 C 9,7 km/h (2 Bft) 95,76 %
16.01.2016 19:45 -1,9 C 88 % 1020,0 hPa 0,0 l/m 4,7 km/h (1 Bft) S 180 0 min 0,000 mm 0,0 UV-I 0 W/m -3,6 C -1,9 C 8,0 km/h (2 Bft) 99,15 %
16.01.2016 19:50 -2,1 C 89 % 1020,0 hPa 0,0 l/m 4,2 km/h (1 Bft) S-SW 198 0 min 0,000 mm 0,0 UV-I 0 W/m -3,7 C -2,1 C 8,0 km/h (2 Bft) 100,00 %
16.01.2016 19:55 -2,2 C 89 % 1020,0 hPa 0,0 l/m 4,4 km/h (1 Bft) W-SW 238 0 min 0,000 mm 0,0 UV-I 0 W/m -3,8 C -2,2 C 8,0 km/h (2 Bft) 98,21 %
16.01.2016 20:00 -2,3 C 89 % 1020,0 hPa 0,0 l/m 4,2 km/h (1 Bft) SW 227 0 min 0,000 mm 0,0 UV-I 0 W/m -3,9 C -2,3 C 6,4 km/h (2 Bft) 99,15 %
16.01.2016 20:05 -2,4 C 90 % 1019,9 hPa 0,0 l/m 4,2 km/h (1 Bft) SW 236 0 min 0,000 mm 0,0 UV-I 0 W/m -3,8 C -2,4 C 8,0 km/h (2 Bft) 100,00 %
16.01.2016 20:10 -2,4 C 90 % 1019,9 hPa 0,0 l/m 5,3 km/h (1 Bft) W-SW 247 0 min 0,000 mm 0,0 UV-I 0 W/m -3,8 C -2,4 C 9,7 km/h (2 Bft) 95,93 %
16.01.2016 20:15 -2,5 C 90 % 1019,8 hPa 0,0 l/m 7,8 km/h (2 Bft) SW 217 0 min 0,000 mm 0,0 UV-I 0 W/m -3,9 C -4,1 C 11,3 km/h (2 Bft) 100,00 %
16.01.2016 20:20 -2,6 C 90 % 1019,8 hPa 0,0 l/m 7,2 km/h (2 Bft) SW 232 0 min 0,000 mm 0,0 UV-I 0 W/m -4,0 C -3,5 C 11,3 km/h (2 Bft) 99,08 %
16.01.2016 20:25 -2,6 C 90 % 1019,7 hPa 0,0 l/m 8,2 km/h (2 Bft) SW 234 0 min 0,000 mm 0,0 UV-I 0 W/m -4,0 C -4,6 C 12,9 km/h (3 Bft) 99,19 %
16.01.2016 20:30 -2,4 C 90 % 1019,7 hPa 0,0 l/m 8,7 km/h (2 Bft) SW 224 0 min 0,000 mm 0,0 UV-I 0 W/m -3,8 C -4,9 C 12,9 km/h (3 Bft) 99,08 %
16.01.2016 20:35 -2,3 C 89 % 1019,6 hPa 0,0 l/m 8,4 km/h (2 Bft) W-SW 246 0 min 0,000 mm 0,0 UV-I 0 W/m -3,9 C -4,5 C 12,9 km/h (3 Bft) 98,39 %
16.01.2016 20:40 -2,2 C 89 % 1019,6 hPa 0,0 l/m 8,8 km/h (2 Bft) SW 219 0 min 0,000 mm 0,0 UV-I 0 W/m -3,8 C -4,8 C 14,5 km/h (3 Bft) 97,50 %
16.01.2016 20:45 -2,0 C 88 % 1019,5 hPa 0,0 l/m 8,4 km/h (2 Bft) W-SW 254 0 min 0,000 mm 0,0 UV-I 0 W/m -3,7 C -4,2 C 12,9 km/h (3 Bft) 96,36 %
16.01.2016 20:50 -2,0 C 88 % 1019,4 hPa 0,0 l/m 7,8 km/h (2 Bft) SW 234 0 min 0,000 mm 0,0 UV-I 0 W/m -3,7 C -3,5 C 14,5 km/h (3 Bft) 97,56 %
16.01.2016 20:55 -2,1 C 88 % 1019,2 hPa 0,0 l/m 10,4 km/h (2 Bft) SW 224 0 min 0,000 mm 0,0 UV-I 0 W/m -3,8 C -6,1 C 16,1 km/h (3 Bft) 97,48 %
16.01.2016 21:00 -2,1 C 89 % 1019,2 hPa 0,0 l/m 8,2 km/h (2 Bft) SW 234 0 min 0,000 mm 0,0 UV-I 0 W/m -3,7 C -4,1 C 14,5 km/h (3 Bft) 97,46 %
16.01.2016 21:05 -2,0 C 89 % 1019,2 hPa 0,0 l/m 7,5 km/h (2 Bft) W-SW 248 0 min 0,000 mm 0,0 UV-I 0 W/m -3,6 C -3,2 C 12,9 km/h (3 Bft) 98,20 %
16.01.2016 21:10 -1,9 C 88 % 1019,1 hPa 0,0 l/m 6,0 km/h (2 Bft) S-SW 207 0 min 0,000 mm 0,0 UV-I 0 W/m -3,6 C -1,9 C 9,7 km/h (2 Bft) 98,35 %
16.01.2016 21:15 -1,9 C 87 % 1019,0 hPa 0,0 l/m 6,2 km/h (2 Bft) SW 215 0 min 0,000 mm 0,0 UV-I 0 W/m -3,8 C -1,9 C 11,3 km/h (2 Bft) 98,31 %
16.01.2016 21:20 -2,0 C 87 % 1019,0 hPa 0,0 l/m 6,5 km/h (2 Bft) SW 228 0 min 0,000 mm 0,0 UV-I 0 W/m -3,9 C -2,1 C 11,3 km/h (2 Bft) 98,29 %
16.01.2016 21:25 -2,2 C 88 % 1018,8 hPa 0,0 l/m 5,8 km/h (2 Bft) S-SW 211 0 min 0,000 mm 0,0 UV-I 0 W/m -3,9 C -2,2 C 9,7 km/h (2 Bft) 100,00 %
16.01.2016 21:30 -2,1 C 88 % 1018,8 hPa 0,0 l/m 5,6 km/h (1 Bft) SW 232 0 min 0,000 mm 0,0 UV-I 0 W/m -3,8 C -2,1 C 11,3 km/h (2 Bft) 100,00 %
16.01.2016 21:35 -2,1 C 88 % 1018,8 hPa 0,0 l/m 7,4 km/h (2 Bft) SW 229 0 min 0,000 mm 0,0 UV-I 0 W/m -3,8 C -3,2 C 12,9 km/h (3 Bft) 98,35 %
16.01.2016 21:40 -2,1 C 88 % 1018,8 hPa 0,0 l/m 8,1 km/h (2 Bft) SW 217 0 min 0,000 mm 0,0 UV-I 0 W/m -3,8 C -4,0 C 12,9 km/h (3 Bft) 99,17 %
16.01.2016 21:45 -2,0 C 88 % 1018,8 hPa 0,0 l/m 8,2 km/h (2 Bft) SW 228 0 min 0,000 mm 0,0 UV-I 0 W/m -3,7 C -4,0 C 14,5 km/h (3 Bft) 100,00 %
16.01.2016 21:50 -1,8 C 88 % 1018,8 hPa 0,0 l/m 7,4 km/h (2 Bft) SW 224 0 min 0,000 mm 0,0 UV-I 0 W/m -3,5 C -2,9 C 11,3 km/h (2 Bft) 99,15 %
16.01.2016 21:55 -1,7 C 88 % 1018,7 hPa 0,0 l/m 4,7 km/h (1 Bft) SW 236 0 min 0,000 mm 0,0 UV-I 0 W/m -3,4 C -1,7 C 8,0 km/h (2 Bft) 98,73 %
16.01.2016 22:05 -1,6 C 87 % 1018,7 hPa 0,0 l/m 1,5 km/h (1 Bft) SW 230 0 min 0,000 mm 0,0 UV-I 0 W/m -3,5 C -1,6 C 3,2 km/h (1 Bft) 99,63 %
16.01.2016 22:10 -1,5 C 87 % 1018,6 hPa 0,0 l/m 2,1 km/h (1 Bft) SW 230 0 min 0,000 mm 0,0 UV-I 0 W/m -3,4 C -1,5 C 4,8 km/h (1 Bft) 99,08 %
16.01.2016 22:15 -1,4 C 87 % 1018,6 hPa 0,0 l/m 2,9 km/h (1 Bft) SW 229 0 min 0,000 mm 0,0 UV-I 0 W/m -3,3 C -1,4 C 4,8 km/h (1 Bft) 99,26 %
16.01.2016 22:20 -1,4 C 87 % 1018,6 hPa 0,0 l/m 3,5 km/h (1 Bft) W-SW 254 0 min 0,000 mm 0,0 UV-I 0 W/m -3,3 C -1,4 C 4,8 km/h (1 Bft) 100,00 %
16.01.2016 22:30 -1,8 C 91 % 1018,5 hPa 0,0 l/m 6,6 km/h (2 Bft) SW 231 0 min 0,000 mm 0,0 UV-I 0 W/m -3,1 C -2,0 C 12,9 km/h (3 Bft) 99,65 %
16.01.2016 22:35 -1,9 C 93 % 1018,5 hPa 0,0 l/m 5,2 km/h (1 Bft) SW 225 0 min 0,000 mm 0,0 UV-I 0 W/m -2,9 C -1,9 C 9,7 km/h (2 Bft) 98,35 %
16.01.2016 22:40 -2,1 C 93 % 1018,4 hPa 0,0 l/m 3,6 km/h (1 Bft) SW 215 0 min 0,000 mm 0,0 UV-I 0 W/m -3,1 C -2,1 C 8,0 km/h (2 Bft) 98,33 %
16.01.2016 22:45 -2,1 C 94 % 1018,4 hPa 0,0 l/m 3,7 km/h (1 Bft) SW 215 0 min 0,000 mm 0,0 UV-I 0 W/m -2,9 C -2,1 C 6,4 km/h (2 Bft) 96,33 %
16.01.2016 22:50 -2,1 C 94 % 1018,4 hPa 0,0 l/m 5,2 km/h (1 Bft) S-SW 199 0 min 0,000 mm 0,0 UV-I 0 W/m -2,9 C -2,1 C 8,0 km/h (2 Bft) 96,75 %
16.01.2016 22:55 -2,1 C 94 % 1018,3 hPa 0,0 l/m 5,6 km/h (1 Bft) SW 221 0 min 0,000 mm 0,0 UV-I 0 W/m -2,9 C -2,1 C 8,0 km/h (2 Bft) 97,32 %
16.01.2016 23:00 -2,1 C 94 % 1018,3 hPa 0,0 l/m 5,3 km/h (1 Bft) S 183 0 min 0,000 mm 0,0 UV-I 0 W/m -2,9 C -2,1 C 11,3 km/h (2 Bft) 96,85 %
16.01.2016 23:05 -2,0 C 94 % 1018,2 hPa 0,0 l/m 5,9 km/h (2 Bft) W-SW 242 0 min 0,000 mm 0,0 UV-I 0 W/m -2,8 C -2,0 C 9,7 km/h (2 Bft) 96,30 %
16.01.2016 23:10 -1,9 C 94 % 1018,3 hPa 0,0 l/m 7,0 km/h (2 Bft) SW 234 0 min 0,000 mm 0,0 UV-I 0 W/m -2,7 C -2,6 C 11,3 km/h (2 Bft) 95,87 %
16.01.2016 23:15 -1,8 C 93 % 1018,3 hPa 0,0 l/m 8,6 km/h (2 Bft) W-SW 246 0 min 0,000 mm 0,0 UV-I 0 W/m -2,8 C -4,1 C 14,5 km/h (3 Bft) 96,43 %
16.01.2016 23:20 -1,7 C 93 % 1018,2 hPa 0,0 l/m 10,7 km/h (2 Bft) W-SW 239 0 min 0,000 mm 0,0 UV-I 0 W/m -2,7 C -5,9 C 16,1 km/h (3 Bft) 98,37 %
16.01.2016 23:25 -1,5 C 92 % 1018,1 hPa 0,0 l/m 12,8 km/h (3 Bft) W-SW 257 0 min 0,000 mm 0,0 UV-I 0 W/m -2,6 C -7,3 C 20,9 km/h (4 Bft) 97,52 %
16.01.2016 23:30 -1,3 C 91 % 1018,1 hPa 0,0 l/m 11,7 km/h (2 Bft) W-SW 257 0 min 0,000 mm 0,0 UV-I 0 W/m -2,6 C -6,3 C 19,3 km/h (3 Bft) 96,33 %
16.01.2016 23:35 -1,2 C 91 % 1018,1 hPa 0,0 l/m 14,5 km/h (3 Bft) W-SW 238 0 min 0,000 mm 0,0 UV-I 0 W/m -2,5 C -8,1 C 22,5 km/h (4 Bft) 98,37 %
16.01.2016 23:40 -1,1 C 90 % 1018,0 hPa 0,0 l/m 14,4 km/h (3 Bft) SW 229 0 min 0,000 mm 0,0 UV-I 0 W/m -2,5 C -7,9 C 24,1 km/h (4 Bft) 100,00 %
16.01.2016 23:45 -1,0 C 90 % 1017,9 hPa 0,0 l/m 14,9 km/h (3 Bft) W-SW 248 0 min 0,000 mm 0,0 UV-I 0 W/m -2,4 C -8,1 C 20,9 km/h (4 Bft) 99,19 %
16.01.2016 23:50 -0,9 C 90 % 1017,9 hPa 0,0 l/m 13,3 km/h (3 Bft) SW 229 0 min 0,000 mm 0,0 UV-I 0 W/m -2,3 C -7,0 C 20,9 km/h (4 Bft) 99,13 %
16.01.2016 23:55 -0,8 C 90 % 1017,9 hPa 0,0 l/m 12,6 km/h (3 Bft) SW 230 0 min 0,000 mm 0,0 UV-I 0 W/m -2,2 C -6,4 C 20,9 km/h (4 Bft) 98,35 %
_ Min-Zeit 20:20 14:40 00:00 - 09:10 - - - - - - 14:40 00:10 09:10 05:20
Minimum _ -2,6 C 67 % 1012,1 hPa - 0,5 km/h (0 Bft) - - - - - - -5,0 C -9,5 C 3,2 km/h (1 Bft) 94,50 %
_ Max-Zeit 14:05 01:25 18:15 11:25 00:10 - - 12:30 13:00 12:05 12:05 04:30 14:10 00:35 00:00
Maximum _ 0,9 C 96 % 1020,7 hPa 0,2 l/m 18,9 km/h
SW (3 Bft)
- - 10 min 0,102 mm 0,7 UV-I 418 W/m -0,8 C 0,9 C 30,6 km/h
W-SW (5 Bft)
100,00 %
Durchschnitt _ -0,7 C 89 % 1017,5 hPa #1,0 l/m 7,7 km/h (2 Bft) W-SW - #2:45 h #0,432 mm 0,5 UV-I 120 W/m -2,4 C -2,7 C 14,3 km/h (3 Bft) 98,61 %